Regional Weather Roundup
Issued by NWS

Home | Current Version | Previous Version | Text Only | Print | Product List | Glossary On
Versions: 1 2 3 4 5 6 7 8 9 10 11 12 13 14 15 16 17 18 19 20 21 22 23 24 25 26 27 28 29 30 31 32 33 34 35 36 37 38 39 40 41 42 43 44 45 46 47 48 49 50
656
ASPQ40 PGUM 200112
RWRPQ
WEATHER ROUNDUP FOR THE MARIANAS AND MICRONESIA
NATIONAL WEATHER SERVICE TIYAN GU
1100 AM CHST MON NOV 20 2017

GUZ001>004-200200-
MARIANA ISLANDS-

CITY           SKY/WX    TMP DP  RH WIND       PRES   REMARKS
GUAM AIRPORT   MOSUNNY   88  73  62 NE17      29.84F HX  96
ANDERSEN AFB   NOT AVBL
ROTA AIRPORT   MOSUNNY   84  73  70 E17       29.85F HX  91
TINIAN AP      MOSUNNY   84  73  70 NE16      29.83  HX  91
SAIPAN AP      PTSUNNY   88  73  62 NE17      29.84F HX  96

$$

PMZ161-200200-
REPUBLIC OF PALAU-

CITY           SKY/WX    TMP DP  RH WIND       PRES   REMARKS
KOROR AP       PTSUNNY   86  79  79 E14G21    29.78F HX  99
KOROR WSO      NOT AVBL

$$

PMZ171>174-200200-
FEDERATED STATES OF MICRONESIA-

CITY           SKY/WX    TMP DP  RH WIND       PRES   REMARKS
YAP AIRPORT    MOSUNNY   88  79  74 NE13      29.78F HX 102
CHUUK AP       PTSUNNY   86  81  84 NE14      29.75  HX 102
POHNPEI AP     LGT RAIN  79  77  94 E13       29.82S
POHNPEI WSO    LGT RAIN  77  75  94 E6        29.85
KOSRAE AP      CLOUDY    84  75  74 S15       29.78S HX  92

$$

PMZ181-200200-
REPUBLIC OF THE MARSHALL ISLANDS-

CITY           SKY/WX    TMP DP  RH WIND       PRES   REMARKS
KWAJALEIN AP   NOT AVBL
MAJURO AP      PTSUNNY   81  77  89 NE7       29.79F
MAJURO WSO     CLOUDY    81  75  83 E8        29.77S

$$





USA.gov is the U.S. government's official web portal to all federal, state and local government web resources and services.